{"data":{"norad_id":68356,"intl_designator":"2026-060G","name":"CENTISPACE-2 S7","alt_names":[],"object_type":"PAYLOAD","status":"ACTIVE","operator":null,"country":"PRC","launch_date":"2026-03-22","launch_site_code":"YSLA","launch_vehicle":null,"mission":null,"orbit_class":"UNKNOWN","rcs_meters":null,"size_class":null,"mass_kg":null,"dimensions":null,"purposes":[],"wikipedia_slug":null,"has_3d_model":false,"image_url":null,"decayed_at":null,"tle_current":{"epoch":"2026-09-19T00:38:10.768128Z","epoch_age_seconds":199392,"freshness":"STALE","line1":"1 68356U 26060G   26262.02651352  .00000116  00000+0  11486-3 0  9994","line2":"2 68356  54.9868  31.1819 0011516 318.0983  41.9112 14.25609592 26334","mean_motion":14.25609592,"eccentricity":0.0011516,"inclination_deg":54.9868,"raan_deg":31.1819,"arg_perigee_deg":318.0983,"mean_anomaly_deg":41.9112,"bstar":0.00011486,"rev_number":2633,"period_min":101.00942137881,"perigee_km":798.17007164059,"apogee_km":814.7175982196,"semimajor_km":7184.5808349301,"source":"CELESTRAK","updated_at":"2026-09-20T09:00:24.160117Z"}}}